Home > Weather > Saratov > Past weeks

Flag for Russia Weather for the Past 2 Weeks in Saratov, Russia

Now
50 °F

Sprinkles. Mostly cloudy.


Feels Like: 46 °F
Forecast: 47 / 52 °F
Wind: 10 mph from Northeast

Location: Saratov / Tsentralny

Current Time: Apr 29, 2016 at 11:36:58 AM

Latest Report: Apr 29, 2016 at 11:00 AM


Visibility: N/A

Pressure: 30.15 "Hg

Humidity: 88%

Dew Point: 46 °F

Location of SaratovLocation

Historic Weather in Saratov — Graph

°F

Saratov Temperature Yesterday

Maximum temperature yesterday: 55 °F (at 12:00 AM)
Minimum temperature yesterday: 52 °F (at 9:00 AM)
Average temperature yesterday: 54 °F

High & Low Weather Summary for the Past Weeks

 TemperatureHumidityPressure
High72 °F (Apr 15, 3:00 PM)100% (Apr 27, 12:00 AM)30.15 "Hg (Apr 27, 12:00 AM)
Low39 °F (Apr 18, 5:00 AM)22% (Apr 18, 3:00 PM)29.47 "Hg (Apr 21, 2:00 PM)
Average54 °F65%29.85 "Hg
* Reported Apr 14 10:00 AM — Apr 29 10:30 AM, Saratov, Weather by CustomWeather, © 2016

Note: Actual official high and low records may vary slightly from our data, if they occured in-between our weather recording intervals... More about our weather records

Advertising

Saratov Weather History for the Previous 24 Hours

Scroll right to see more
 ConditionsComfort  
Time TempWeatherWind HumidityBarometerVisibility
10:30 AM
Fri, Apr 29
50 °FSprinkles. Mostly cloudy.8 mph82%30.15 "HgN/A
10:00 AM50 °FSprinkles. Cloudy.10 mph82%30.15 "HgN/A
9:30 AM48 °FSprinkles. Cloudy.10 mph87%30.12 "HgN/A
9:00 AM48 °FSprinkles. Mostly cloudy.10 mph87%30.12 "HgN/A
8:00 AM48 °FSprinkles. Mostly cloudy.13 mph87%30.12 "HgN/A
7:30 AM48 °FSprinkles. Mostly cloudy.13 mph87%30.09 "HgN/A
7:00 AM48 °FSprinkles. Mostly cloudy.10 mph87%30.09 "HgN/A
6:30 AM48 °FSprinkles. Mostly cloudy.10 mph87%30.09 "HgN/A
5:30 AM50 °FSprinkles. Mostly cloudy.8 mph88%30.07 "HgN/A
5:00 AM50 °FSprinkles. Mostly cloudy.10 mph88%30.07 "HgN/A
4:30 AM50 °FSprinkles. Mostly cloudy.6 mph88%30.07 "HgN/A
4:00 AM50 °FSprinkles. Mostly cloudy.8 mph88%30.07 "HgN/A
3:00 AM50 °FSprinkles. Mostly cloudy.6 mph88%30.07 "HgN/A
2:00 AM52 °FSprinkles. Mostly cloudy.6 mph82%30.07 "HgN/A
1:00 AM52 °FSprinkles. Mostly cloudy.1 mph88%30.07 "HgN/A
12:30 AM54 °FMostly cloudy.1 mph77%30.07 "HgN/A
12:00 AM54 °FMostly cloudy.1 mph77%30.07 "HgN/A
11:30 PM
Thu, Apr 28
54 °FMostly cloudy.1 mph77%30.07 "HgN/A
11:00 PM54 °FMostly cloudy.1 mph77%30.07 "HgN/A
10:30 PM54 °FMostly cloudy.1 mph77%30.07 "HgN/A
10:00 PM54 °FMostly cloudy.1 mph77%30.07 "HgN/A
9:30 PM54 °FMostly cloudy.6 mph77%30.07 "HgN/A
9:00 PM54 °FMostly cloudy.10 mph77%30.07 "HgN/A
8:30 PM52 °FPartly cloudy.13 mph82%30.07 "HgN/A
8:00 PM52 °FPartly cloudy.10 mph82%30.07 "HgN/A
7:30 PM52 °FClear.10 mph77%30.04 "Hg10 mi
7:00 PM52 °FSunny.8 mph77%30.04 "Hg10 mi
6:30 PM54 °FSunny.10 mph67%30.04 "Hg10 mi
6:00 PM54 °FSunny.10 mph67%30.04 "Hg10 mi
5:30 PM54 °FSunny.10 mph67%30.04 "Hg10 mi
5:00 PM54 °FLight rain. Overcast.10 mph67%30.04 "HgN/A
4:30 PM54 °FLight rain. Overcast.10 mph63%30.04 "HgN/A
4:00 PM54 °FLight rain. Overcast.10 mph63%30.04 "HgN/A
3:30 PM55 °FLight rain. Cloudy.13 mph55%30.04 "HgN/A
3:00 PM55 °FSunny.13 mph55%30.04 "Hg10 mi
2:30 PM55 °FSunny.13 mph59%30.04 "Hg10 mi
2:00 PM55 °FSunny.13 mph59%30.04 "Hg10 mi
1:30 PM55 °FSunny.15 mph59%30.01 "Hg10 mi
1:00 PM55 °FSunny.15 mph59%30.01 "Hg10 mi
12:30 PM54 °FSunny.15 mph63%30.01 "Hg10 mi
12:00 PM54 °FSunny.13 mph63%30.01 "Hg10 mi
11:30 AM54 °FSunny.13 mph58%30.01 "Hg10 mi
Weather by CustomWeather, © 2016

See weather overviewHow to use our weather pages